Regional Weather Roundup
Issued by NWS Upton, NY

Current Version | Previous Version | Graphics & Text | Print | Product List | Glossary Off
Versions: 1 2 3 4 5 6 7 8 9 10 11 12 13 14 15 16 17 18 19 20 21 22 23 24 25 26 27 28 29 30 31 32 33 34 35 36 37 38 39 40 41 42 43 44 45 46 47 48 49 50

000
ASUS41 KOKX 182208
RWROKX

REGIONAL WEATHER ROUNDUP
NATIONAL WEATHER SERVICE NEW YORK NY
600 PM EDT SAT APR 18 2015

NOTE: "FAIR" INDICATES FEW OR NO CLOUDS BELOW 12,000 FEET WITH NO
SIGNIFICANT WEATHER AND/OR OBSTRUCTIONS TO VISIBILITY.

NYZ071-072-176-178-NJZ106-104-182300-
NEW YORK CITY METRO AREA


CITY           SKY/WX    TMP DP  RH WIND       PRES   REMARKS
CENTRAL PARK   SUNNY     76  41  28 S7        29.87F
LAGUARDIA APRT MOSUNNY   73  41  31 S13G21    29.85F
KENNEDY INTL   MOSUNNY   64  42  44 S23       29.88F
NEWARK/LIBERTY MOSUNNY   81  36  19 W14G26    29.85F
BRNX BOT. GARD   N/A     72  43  35 SE8       29.86F
TETERBORO      MOSUNNY   80  37  21 W10       29.83S
$$

NYZ177-179-078>081-182300-
LONG ISLAND NEW YORK

CITY           SKY/WX    TMP DP  RH WIND       PRES   REMARKS
FARMINGDALE    SUNNY     64  44  48 SW18      29.88S
ISLIP          MOSUNNY   64  45  49 SW14      29.87R
SHIRLEY        SUNNY     63  44  50 SW12G22   29.89R
WESTHAMPTON    SUNNY     60  44  55 SW15G31   29.89R
MONTAUK POINT    N/A     63  43  48 SW9G20    29.86S
$$

NYZ052-065-067-182300-
HUDSON VALLEY

CITY           SKY/WX    TMP DP  RH WIND       PRES   REMARKS
WHITE PLAINS   MOSUNNY   71  42  35 S9        29.85R
NEWBURGH       MOSUNNY   77  37  24 NW21G32   29.87R
MONTGOMERY     SUNNY     79  36  21 N15G25    29.86R
POUGHKEEPSIE   SUNNY     79  34  19 W16G30    29.85R
ALBANY         MOSUNNY   70  27  20 NW22G37   29.92R
$$

NJZ001-105-106-008-010-013-015-019>022-104-182300-
NEW JERSEY

CITY           SKY/WX    TMP DP  RH WIND       PRES   REMARKS
NEWARK/LIBERTY MOSUNNY   81  36  19 W14G26    29.85F
TETERBORO      MOSUNNY   80  37  21 W10       29.83S
CALDWELL       SUNNY     80  36  20 NW10      29.85S
MORRISTOWN     MOSUNNY   82  32  16 NW13G23   29.86S
SOMERVILLE     SUNNY     81  37  20 VRB7      29.85S
SUSSEX         SUNNY     79  35  20 W12G22    29.88R
ANDOVER          N/A     79  37  22 VRB5      29.87S
TRENTON        SUNNY     80  37  21 W10G21    29.89S
MILLVILLE      SUNNY     74  48  39 VRB6      29.94R
ATLANTIC CITY  SUNNY     71  44  37 S12       29.93S
WRIGHTSTOWN    SUNNY     78  40  25 NW12      29.86F
TOMS RIVER     SUNNY     73  46  38 S13G18    29.91S
BELMAR         SUNNY     72  46  40 SE10      29.89S
$$

PAZ047>061-062-071-182300-
EASTERN PENNSYLVANIA

CITY           SKY/WX    TMP DP  RH WIND       PRES   REMARKS
PHILADELPHIA   MOSUNNY   80  41  24 SW12      29.92R
ALLENTOWN      SUNNY     79  39  23 W10       29.89S
SCRANTON       SUNNY     77  35  21 NW18G26   29.92R
$$

CTZ002-004>006-009-010-012-RIZ004-006-007-MAZ004-011-015-182300-
SOUTHERN NEW ENGLAND
 IN CT

CITY           SKY/WX    TMP DP  RH WIND       PRES   REMARKS
BRADLEY INTL   MOSUNNY   77  38  24 NW18G30   29.81R
HARTFORD       SUNNY     79  36  21 NW12G22   29.81R
DANBURY        MOSUNNY   78  36  21 W14G21    29.85R
WTRBRY/OXFORD  MOSUNNY   75  39  27 MISG      29.86R
BRIDGEPORT     MOSUNNY   63  45  51 SW13      29.84R
MERIDEN        MOSUNNY   78  36  21 W9G20     29.82R
NEW HAVEN      MOSUNNY   64  43  46 SW12G21   29.84R
CHESTER        FAIR      72  39  30 SW9G18    29.84S
GROTON         SUNNY     60  43  53 SW13G20   29.83R
WILLIMANTIC    PTSUNNY   76  39  26 W12G23    29.81R

 IN RI

CITY           SKY/WX    TMP DP  RH WIND       PRES   REMARKS
PROVIDENCE     PTSUNNY   72  41  32 SW17      29.79R
BLOCK ISLAND   SUNNY     55  41  58 SW21G30   29.85S
WESTERLY       SUNNY     63  43  48 SW8G20    29.84R

 IN MA

CITY           SKY/WX    TMP DP  RH WIND       PRES   REMARKS
BOSTON         MOSUNNY   46  41  82 NE5       29.84R
WORCESTER      MOSUNNY   70  36  28 NW21G29   29.83R
WESTFIELD      SUNNY     75  31  19 NW24G37   29.82R
PROVINCETOWN   MOSUNNY   57  43  58 S13       29.82S
NANTUCKET      SUNNY     51  44  77 SW12      29.86R
$$

ANZ330-335-338-340-345-350-353-355-182300-
COASTAL MARINE OBSERVATIONS


STATION/POSITION TIME  SKY/WX   TEMP    WIND        PRES    VSBY  WAVE
                                AIR SEA DIR/SP/G                  HT/PER
                 (UTC)          (F)     (DEG/KT/KT) (MB)    (MI)  (FT/S)
NY HARB ENTRANCE 2150            54 47  200/ 17/ 19 1011.6          3/13
4S FIRE IS       2103               45                N/A           3/ 7
20S FIRE ISLAND  2050               46              1012.9          3/13
23SW MTP         NOT AVBL
HUDSON CANYON    NOT AVBL
EXECUTION ROCKS  NOT AVBL
WESTERN LI SOUND NOT AVBL
CENTRAL LI SOUND NOT AVBL
EASTERN LI SOUND 2100            55     220/ 10/ 14   N/A
ROBBINS REEF     2100            75     240/ 14/ 17 1010.1
$$


>>>>>>>>>>>>>>>>>>>>>>>>>>>> KEY <<<<<<<<<<<<<<<<<<<<<<<<<<<
>                                                          <
>     SKY/WX - SKY CONDITION/PRESENT WEATHER               <
>     TMP    - TEMPERATURE IN FAHRENHEIT                   <
>     DP     - DEWPOINT IN FAHRENHEIT                      <
>     RH     - RELATIVE HUMIDITY IN PERCENT                <
>     WIND   - DIRECTION AND SPEED IN MPH                  <
>     PRES   - MEAN SEA LEVEL PRESSURE IN INCHES OF HG     <
>     WCI    - WIND CHILL INDEX                            <
>     VSB    - VISIBILITY IN MILES                         <
>     HX     - HEAT INDEX                                  <
>     TC     - TEMPERATURE IN CELSIUS                      <
>     VRB    - VARIABLE WIND DIRECTION                     <
>                                                          <
>>>>>>>>>>>>>>>>>>>>>>>>>>>> KEY <<<<<<<<<<<<<<<<<<<<<<<<<<<




USA.gov is the U.S. government's official web portal to all federal, state and local government web resources and services.